STARLINK-5695 (55485 NORAD) Tracking and Keplerian Element Data

This shows tracking and keplerian element data for the satellite.

Feedback or suggestion? Click here.




ElementValue
Catalog55485
NameSTARLINK-5695
Epoch Orbit130
Epoch Day84.91667824
Epoch Year2023
RAAN86.4028
Inclination43.0001
Eccentricity6.55E-05
Argument of Perigee239.9303
Mean Anonmoly178.6107
Mean Motion15.04489702
Decay Rate0.00053863
L11 55485U 23015AN 23084.91667824 .00053863 00000+0 37706-2 0 9997
L22 55485 43.0001 86.4028 0000655 239.9303 178.6107 15.04489702 1304



Live tracking and technical data element details for STARLINK-5695 (NORAD 55485). STARLINK-5695 can be tracked NOW for your location showing map with azimuth and elevation plus other details from your city location.







IsCatalogInMostPopularTable: catalog: 55485, numindb: -1

Insert: records affected: 1


GetName: 55485 STARLINK-5695

Hit Count: inserted at: Tue, 28 Mar 2023 02:40:06 GMT